Content
SEND FEEDBACK

Daily
Averages
Monthly
Summary
United States of America

LAKE GEORGE, NEW YORK


Home > North America > United States > New York
Elevation: 321 feet     Latitude: 43 21N     Longitude: 073 37W

WEATHER
 
SELECT A DAY
Number of Records: 212,935;   Date Range: 1/1/95 - 7/26/14
 
SHARE

PRINT THIS DATA

[ ← Previous Day ]
WEATHER ALMANAC - JANUARY 6, 2013
[ Next Day → ]
[ °C ]   °F
Weather ElementAverageHighLow
Temperature27 °F34 °F (3:53 pm)18 °F (1:53 am)
Dewpoint22.2 °F28.9 °F (6:53 pm)12.9 °F (1:53 am)
Humidity82.5 %96 % (11:53 pm)70 % (3:53 pm)
Barometer30.02 in30.16 in (1:53 am)29.94 in (1:53 pm)
Wind Speed4.2 mph9.2 mph (11:53 am)
Weather ElementAverage
Visibility7.7 mi
Wind DirectionSE (137.4 °)

Weather ElementTotal
Precipitation---
Heating Degree Days39 (Base 65)
Averaged from 31 records on January 6, 2013
WEATHER CONDITIONS BREAKOUT
WIND DIRECTION BREAKOUT
WEATHER BY HOUR - JANUARY 6, 2013
[ °C ]   °F
Local TimeTemperatureDewpointHumidityBarometerVisibilityWind DirectionWind SpeedGust SpeedPrecipitationEventsConditions
1:53 AM18.0 °F12.9 °F81 %30.16 in10.0 miCalmOvercast
2:53 AM18.0 °F14.0 °F84 %30.14 in10.0 miCalmOvercast
3:53 AM19.9 °F15.1 °F81 %30.10 in10.0 miCalmOvercast
4:22 AM19.4 °F15.8 °F86 %30.07 in2.5 miSouth (170°)3.5 mphSnowLight Snow
4:31 AM23.0 °F17.6 °F80 %30.06 in3.0 miSSE (160°)4.6 mph0.00 inSnowLight Snow
4:53 AM23.0 °F18.0 °F81 %30.07 in9.0 miSSE (160°)3.5 mph0.00 inOvercast
5:02 AM23.0 °F17.6 °F80 %30.04 in10.0 miSSE (160°)4.6 mphOvercast
5:10 AM23.0 °F19.4 °F86 %30.04 in10.0 miSSE (160°)3.5 mphOvercast
5:53 AM24.1 °F19.9 °F84 %30.07 in10.0 miCalmOvercast
6:05 AM24.8 °F21.2 °F86 %30.04 in10.0 miCalmOvercast
6:53 AM26.1 °F21.9 °F84 %30.06 in8.0 miSSW (210°)3.5 mphOvercast
7:53 AM25.0 °F21.9 °F88 %30.04 in8.0 miSSW (210°)5.8 mphOvercast
8:00 AM26.6 °F21.2 °F80 %30.00 in8.0 miSSW (200°)5.8 mphOvercast
8:53 AM27.0 °F23.0 °F85 %30.05 in6.0 miSouth (180°)5.8 mphOvercast
9:09 AM26.6 °F23.0 °F86 %30.02 in8.0 miSSW (210°)6.9 mphOvercast
9:53 AM27.0 °F23.0 °F85 %30.04 in8.0 miSE (140°)5.8 mphOvercast
10:51 AM26.6 °F21.2 °F80 %29.99 in8.0 miSouth (180°)5.8 mphOvercast
10:53 AM27.0 °F23.0 °F85 %30.03 in8.0 miSouth (180°)5.8 mphOvercast
11:53 AM30.0 °F24.1 °F79 %29.99 in9.0 miSSW (200°)9.2 mphOvercast
12:53 PM30.9 °F24.1 °F76 %29.97 in8.0 miSSE (160°)6.9 mphOvercast
1:53 PM32.0 °F25.0 °F75 %29.94 in8.0 miSE (140°)3.5 mphOvercast
2:53 PM33.1 °F25.0 °F72 %29.94 in7.0 miSSE (160°)5.8 mphOvercast
3:53 PM34.0 °F25.0 °F70 %29.94 in8.0 miSSW (200°)3.5 mphOvercast
4:53 PM34.0 °F25.0 °F70 %29.95 in9.0 miSouth (190°)5.8 mphOvercast
5:53 PM33.1 °F28.0 °F82 %29.96 in5.0 miSSW (200°)9.2 mph0.00 inSnowLight Snow
6:53 PM33.1 °F28.9 °F85 %29.97 in8.0 miSSW (200°)6.9 mph0.00 inOvercast
7:53 PM33.1 °F28.9 °F85 %29.97 in7.0 miSouth (190°)3.5 mphOvercast
8:53 PM30.0 °F27.0 °F88 %29.97 in6.0 miESE (110°)3.5 mphMostly Cloudy
9:53 PM30.9 °F28.9 °F92 %29.98 in6.0 miCalmOvercast
10:53 PM30.9 °F27.0 °F85 %29.98 in8.0 miSouth (190°)6.9 mphClear
11:53 PM24.1 °F23.0 °F96 %29.99 in2.5 miCalmPartly Cloudy
Hourly data recorded from KGFL, located miles away from Lake George, New York







STORIES FROM OUR PARTNERS